Weather in Shabanovo

Russia / Kemerovo Oblast     54°40′25″N   85°36′41″E
temp.,
°C
wind,
m/s
gust,
m/s
humid.,
%
clouds,
%
prec.,
mm/h
press.,
hPa
HPBL,
m
14 august, sun
sun1401:00+15sw3893100 2.1 1006174
04:00+14sw5119363 0.0 1006213
07:00+14sw6128829 0.0 1005266
10:00+16sw81683100 0.4 1004720
13:00+18wsw10147217 1.3 10041423
16:00+22w10133663 0.3 10042633
19:00+18w7105136 0.3 10061638
22:00+13wsw497089 0.0 1007177
15 august, mon
mon1501:00+13w5117895 0.1 1007423
04:00+11wsw512806 0.0 1007505
07:00+10wsw511865 0.0 1008536
10:00+14w796340 0.0 10081157
13:00+16w8114937 0.1 10091674
16:00+16w71144100 0.0 10092251
19:00+15w7124960 0.0 10092047
22:00+10w5116039 0.1 1010528
16 august, tue
tue1601:00+10wnw6967100 0.1 10111047
04:00+8w5107882 0.0 1011500
07:00+8w4979100 0.1 1012558
10:00+8w4881100 0.9 1012880
13:00+8wnw4881100 1.3 1013606
16:00+9wnw4878100 0.0 1014580
19:00+10nnw4575100 0.0 1014594
22:00+8wsw2283100 0.0 101463
17 august, wed
wed1701:00+8sw2279100 0.0 101442
04:00+8wsw1179100 0.1 101329
07:00+7ssw348429 0.1 101377
10:00+13sw335581 0.1 10121153
13:00+14sw3443100 0.3 10111686
16:00+16ssw2436100 0.0 10102059
19:00+15ssw2341100 0.0 1009765
22:00+9wnw2490100 0.1 1011142
18 august, thu
thu1801:00+8s2492100 1.4 1010169
04:00+8ssw3697100 1.1 1009375
07:00+8wsw3794100 2.6 1010346
10:00+8wsw5992100 2.6 1011649
13:00+9wnw588257 3.1 1013692
16:00+11wnw567399 0.4 10131011
19:00+9nw467554 0.7 1014660
22:00+8w247845 0.0 101496